Location: Fort Wayne
(41.1310°N, 85.1290°W)
Time: 04:22:07
(UTC-04:00)

Cosmos 1000 Rocket - Visible Passes

Search period start: 26 July 2016 00:00
Search period end: 05 August 2016 00:00
Orbit: 953 x 993 km, 82.9° (Epoch: 26 July)

Date Brightness Start Highest point End Pass type
(mag) Time Alt. Az. Time Alt. Az. Time Alt. Az.
26 Jul 5.6 01:22:30 10° NNW 01:27:54 32° W 01:28:37 31° W visible
27 Jul 4.5 00:01:20 10° N 00:07:34 68° E 00:08:34 59° SE visible
27 Jul 6.3 01:48:15 10° NW 01:52:12 18° W 01:53:11 17° W visible
27 Jul 6.1 22:42:09 10° NNE 22:46:19 18° ENE 22:48:32 15° E visible
28 Jul 4.5 00:26:02 10° NNW 00:32:14 69° W 00:33:09 61° SW visible
28 Jul 5.4 23:05:52 10° NNE 23:11:24 32° ENE 23:13:07 28° ESE visible
29 Jul 5.3 00:51:02 10° NNW 00:56:45 39° W 00:57:44 36° WSW visible
29 Jul 4.7 23:30:08 10° N 23:36:17 56° E 23:37:43 46° SE visible
30 Jul 6.1 01:16:31 10° NW 01:21:06 22° W 01:22:21 20° W visible
30 Jul 6.3 22:11:26 10° NNE 22:14:54 15° ENE 22:17:44 11° E visible
30 Jul 4.4 23:54:43 10° N 00:01:01 84° W 00:02:20 58° S visible
31 Jul 6.8 01:43:27 10° WNW 01:45:17 11° WNW 01:46:57 10° W visible
31 Jul 5.7 22:34:50 10° NNE 22:40:03 27° ENE 22:42:21 21° ESE visible
01 Aug 5.1 00:19:37 10° NNW 00:25:34 47° W 00:26:59 41° SW visible
01 Aug 4.9 22:58:58 10° N 23:04:59 46° ENE 23:07:00 35° ESE visible
02 Aug 6.0 00:44:55 10° NNW 00:49:59 26° W 00:51:37 24° WSW visible
02 Aug 6.4 21:41:02 10° NE 21:43:26 12° ENE 21:45:50 10° E visible
02 Aug 4.4 23:23:27 10° N 23:29:46 82° E 23:31:40 48° SSE visible
03 Aug 6.7 01:11:02 10° NW 01:14:13 14° W 01:16:17 12° W visible
03 Aug 5.9 22:03:53 10° NNE 22:08:39 22° ENE 22:11:44 16° ESE visible
03 Aug 4.9 23:48:15 10° NNW 23:54:23 57° W 23:56:21 41° SSW visible
04 Aug 5.1 22:27:51 10° N 22:33:40 38° ENE 22:36:25 26° ESE visible
